Home   Weather   Tamsweg   Past weeks

Flag for Austria Past Weather in Tamsweg, Salzburg, Austria — Yesterday and Last 2 Weeks

Now
9 °F

Frigid.


Feels Like: 9 °F
Forecast: 0 / 33 °F
Wind: 1 mph from West

Location: Aigen Im Ennstal

Current Time: Jan 24, 2017 at 12:29:39 am

Latest Report: Jan 23, 2017 at 11:00 pm


Visibility: N/A

Pressure: 30.39 "Hg (26.58 "Hg at 1021m altitude)

Humidity: 87%

Dew Point: 6 °F

Location of TamswegLocation

Past Weather in Tamsweg — Graph

°F

Tamsweg Temperature Yesterday

Maximum temperature yesterday: 28 °F (at 3:00 pm)
Minimum temperature yesterday: 6 °F (at 8:00 am)
Average temperature yesterday: 14 °F

High & Low Weather Summary for the Past Weeks

 TemperatureHumidityPressure
High40 °F (Jan 12, 1:00 pm)95% (Jan 12, 8:00 pm)30.81 "Hg (Jan 12, 8:00 pm)
Low-2 °F (Jan 21, 8:00 am)50% (Jan 13, 3:00 pm)29.57 "Hg (Jan 13, 6:00 am)
Average19 °F79%30.31 "Hg
* Reported Jan 8 11:00 pm — Jan 23 11:00 pm, Tamsweg, Weather by CustomWeather, © 2017

Note: Actual official high and low records may vary slightly from our data, if they occured in-between our weather recording intervals... More about our weather records

Advertising

Tamsweg Weather History for the Previous 24 Hours

Scroll right to see more
 ConditionsComfort  
Time TempWeatherWind HumidityBarometerVisibility
11:00 pm
Mon, Jan 23
9 °FFrigid.1 mph87%30.39 "HgN/A
10:00 pm7 °FFog.No wind89%30.40 "Hg1 mi
9:00 pm7 °FFrigid.No wind87%30.40 "HgN/A
8:00 pm14 °FCold.No wind88%30.37 "HgN/A
7:00 pm16 °FClear.No wind90%30.34 "Hg12 mi
6:00 pm20 °FCold.1 mph84%30.32 "HgN/A
5:00 pm21 °FCold.1 mph79%30.29 "HgN/A
4:00 pm27 °FSunny.N/A72%30.24 "Hg31 mi
3:00 pm28 °FChilly.No wind74%30.26 "HgN/A
2:00 pm26 °FFog.No wind77%30.27 "HgN/A
1:00 pm23 °FSunny.1 mph86%30.31 "Hg31 mi
12:00 pm20 °FFog.1 mph86%30.36 "HgN/A
11:00 am18 °FCold.1 mph86%30.39 "HgN/A
10:00 am11 °FPassing clouds.1 mph87%30.43 "Hg31 mi
9:00 am6 °FFrigid.1 mph83%30.47 "HgN/A
8:00 am6 °FFrigid.1 mph85%30.48 "HgN/A
7:00 am9 °FPassing clouds.No wind87%30.45 "Hg19 mi
6:00 am7 °FFrigid.1 mph87%30.47 "HgN/A
5:00 am11 °FCold.1 mph85%30.46 "HgN/A
4:00 am12 °FClear.N/A88%30.45 "Hg12 mi
3:00 am12 °FCold.No wind85%30.47 "HgN/A
2:00 am11 °FCold.1 mph87%30.48 "HgN/A
1:00 am12 °FClear.N/A87%30.47 "Hg12 mi
12:00 am9 °FFrigid.No wind89%30.50 "HgN/A
Weather by CustomWeather, © 2017

See weather overviewHow to use our weather pages